Location: Les Jeannots
(43.2262°N, 5.5774°E)
Time: 17:42:00
(UTC+00:00)

Cosmos 1603 - Pass Details

Date: 05 July 2020
Orbit: 830 x 861 km, 71.0° (Epoch: 13 August)

Event Time Altitude Azimuth Distance (km) Brightness Sun altitude
Exits shadow 23:36:03 35° 116° (ESE) 1,326 4.5 -24.1°
Maximum altitude 23:36:30 36° 105° (ESE) 1,313 4.5 -24.1°
Drops below altitude 10° 23:41:39 10° 41° (NE) 2,485 6.8 -24.1°
Sets 23:44:17 0° 33° (NNE) 3,430 7.8 -24.1°
